Weather in Zvezda

Russia / Oryol Oblast     53°05′56″N   35°20′25″E
temp.,
°C
wind,
m/s
gust,
m/s
humid.,
%
clouds,
%
prec.,
mm/h
press.,
hPa
HPBL,
m
20 april, tue
tue2000:00+5ne5995100 3.8 1017673
03:00+5ene5109599 5.1 1016433
06:00+6ene4997100 0.6 1015453
09:00+7e61192100 1.7 1014670
12:00+8e61088100 1.2 1013793
15:00+9e81083100 1.3 1011804
18:00+5ene7989100 0.1 1011707
21:00+3ne5996100 0.1 1010404
21 april, wed
wed2100:00+3nne4797100 0.0 1007389
03:00+3n4697100 0.1 1006412
06:00+2nw3697100 0.1 1006446
09:00+3wnw3596100 0.1 1008540
12:00+5w4587100 0.1 1009671
15:00+7w4569100 0.2 10101219
18:00+6w3580100 0.1 1011451
21:00+4wsw3496100 0.6 1014682
22 april, thu
thu2200:00+4sw359581 0.9 1015196
03:00+2ssw499762 0.9 1016222
06:00+2s389799 0.0 1016182
09:00+8ssw588037 0.0 1017486
12:00+12ssw676750 0.3 10161272
15:00+13ssw696697 1.4 10151197
18:00+12sw61073100 1.9 1015753
21:00+8s4109323 2.8 1016188
23 april, fri
fri2300:00+7s4119011 0.1 1016207
03:00+8s5138877 0.3 1016291
06:00+8s61484100 0.1 1015371
09:00+11s6127799 0.1 1016636
12:00+15s912555 0.2 10141888
15:00+15s81160100 1.0 10131532
18:00+12s61273100 3.0 1011654
21:00+6nw4495100 5.8 1012242
24 april, sat
sat2400:00+5wnw5695100 5.2 1012492
03:00+3wnw51097100 9.1 1012613
06:00+3wsw3793100 0.1 1013510
09:00+6wsw56755 0.2 1012632
12:00+8w666097 1.1 10121484
15:00+8wsw7857100 2.6 10121683
18:00+6w6867100 1.0 10121133
21:00+3wsw39835 1.3 1014204